| time (UTC) | temp C | wind direction | speed KPH | gust KPH | rain 1hr cm | rain 24hr cm | rain mn cm | humidity % | barometer mb |
| 20260903233122 | 26 | 88 | 0.0 | 3.2 | 0.00 | 0.46 | 0.46 | 89 | 1010.0 |
| 20260903232124 | 27 | 135 | 0.0 | 3.2 | 0.00 | 0.46 | 0.46 | 87 | 1010.0 |
| 20260903231121 | 27 | 151 | 1.6 | 3.2 | 0.00 | 0.46 | 0.46 | 86 | 1010.2 |
| 20260903230122 | 27 | 165 | 1.6 | 4.8 | 0.00 | 0.46 | 0.46 | 86 | 1010.2 |
| 20260903225122 | 27 | 179 | 3.2 | 4.8 | 0.00 | 0.46 | 0.46 | 84 | 1010.2 |
| 20260903224122 | 28 | 157 | 1.6 | 4.8 | 0.00 | 0.46 | 0.46 | 83 | 1010.2 |
| 20260903223143 | 28 | 208 | 3.2 | 6.4 | 0.00 | 0.46 | 0.46 | 81 | 1010.4 |
| 20260903222122 | 29 | 288 | 1.6 | 4.8 | 0.00 | 0.46 | 0.46 | 79 | 1010.2 |
| 20260903221124 | 29 | 182 | 3.2 | 4.8 | 0.00 | 0.46 | 0.46 | 78 | 1010.1 |
| 20260903220142 | 30 | 178 | 3.2 | 6.4 | 0.00 | 0.46 | 0.46 | 76 | 1010.2 |
| 20260903215121 | 30 | 206 | 3.2 | 4.8 | 0.00 | 0.46 | 0.46 | 74 | 1010.2 |
| 20260903214125 | 30 | 112 | 3.2 | 6.4 | 0.00 | 0.46 | 0.46 | 74 | 1010.1 |
| 20260903213123 | 31 | 292 | 1.6 | 4.8 | 0.00 | 0.46 | 0.46 | 68 | 1010.0 |
| 20260903212121 | 31 | 280 | 1.6 | 3.2 | 0.00 | 0.46 | 0.46 | 68 | 1010.0 |
| 20260903211145 | 31 | 288 | 1.6 | 3.2 | 0.00 | 0.46 | 0.46 | 69 | 1010.0 |
| 20260903210121 | 31 | 250 | 3.2 | 6.4 | 0.00 | 0.46 | 0.46 | 67 | 1010.0 |
| 20260903205210 | 31 | 253 | 3.2 | 4.8 | 0.00 | 0.46 | 0.46 | 68 | 1010.2 |
| 20260903205142 | 31 | 248 | 3.2 | 4.8 | 0.00 | 0.46 | 0.46 | 68 | 1010.2 |
| 20260903204121 | 32 | 318 | 3.2 | 6.4 | 0.00 | 0.46 | 0.46 | 66 | 1010.1 |
| 20260903203121 | 32 | 272 | 3.2 | 4.8 | 0.00 | 0.46 | 0.46 | 64 | 1010.0 |
| 20260903202122 | 32 | 265 | 4.8 | 8.0 | 0.00 | 0.46 | 0.46 | 66 | 1010.0 |
| 20260903201146 | 32 | 316 | 3.2 | 6.4 | 0.00 | 0.46 | 0.46 | 65 | 1010.2 |
| 20260903200126 | 32 | 320 | 4.8 | 8.0 | 0.00 | 0.46 | 0.46 | 65 | 1010.2 |
| 20260903195124 | 32 | 284 | 3.2 | 6.4 | 0.00 | 0.46 | 0.46 | 65 | 1010.2 |
| 20260903194123 | 32 | 243 | 4.8 | 12.9 | 0.00 | 0.91 | 0.46 | 65 | 1010.2 |
| 20260903193124 | 32 | 285 | 4.8 | 9.7 | 0.00 | 1.04 | 0.46 | 66 | 1010.4 |
| 20260903192122 | 32 | 260 | 4.8 | 8.0 | 0.00 | 1.07 | 0.46 | 66 | 1010.6 |
| 20260903191125 | 32 | 260 | 4.8 | 9.7 | 0.00 | 1.07 | 0.46 | 65 | 1010.9 |
| 20260903190143 | 31 | 264 | 4.8 | 11.3 | 0.00 | 1.07 | 0.46 | 66 | 1010.9 |
| 20260903185143 | 32 | 347 | 4.8 | 11.3 | 0.00 | 1.07 | 0.46 | 65 | 1010.9 |
| 20260903184146 | 32 | 334 | 4.8 | 11.3 | 0.00 | 1.07 | 0.46 | 64 | 1011.0 |
| 20260903183122 | 31 | 279 | 6.4 | 14.5 | 0.00 | 1.07 | 0.46 | 66 | 1011.0 |
| 20260903182143 | 31 | 30 | 4.8 | 11.3 | 0.00 | 1.07 | 0.46 | 66 | 1011.2 |
| 20260903181148 | 31 | 279 | 6.4 | 11.3 | 0.00 | 1.07 | 0.46 | 67 | 1011.4 |
| 20260903180123 | 31 | 263 | 6.4 | 12.9 | 0.00 | 1.07 | 0.46 | 67 | 1011.4 |
| 20260903175142 | 31 | 309 | 6.4 | 14.5 | 0.00 | 1.07 | 0.46 | 67 | 1011.4 |
| 20260903174145 | 31 | 315 | 4.8 | 9.7 | 0.00 | 1.07 | 0.46 | 70 | 1011.6 |
| 20260903173121 | 30 | 315 | 6.4 | 11.3 | 0.00 | 1.07 | 0.46 | 70 | 1011.8 |
| 20260903172142 | 30 | 274 | 6.4 | 12.9 | 0.00 | 1.07 | 0.46 | 71 | 1012.0 |
| 20260903171121 | 30 | 277 | 4.8 | 11.3 | 0.00 | 1.07 | 0.46 | 71 | 1012.2 |
| 20260903170145 | 29 | 274 | 4.8 | 12.9 | 0.00 | 1.07 | 0.46 | 75 | 1012.2 |
| 20260903165121 | 29 | 266 | 4.8 | 14.5 | 0.00 | 1.07 | 0.46 | 75 | 1012.2 |
| 20260903164122 | 29 | 263 | 4.8 | 8.0 | 0.00 | 1.07 | 0.46 | 74 | 1012.2 |
| 20260903163122 | 30 | 252 | 4.8 | 8.0 | 0.00 | 1.07 | 0.46 | 73 | 1012.2 |
| 20260903162121 | 28 | 257 | 4.8 | 11.3 | 0.00 | 1.07 | 0.46 | 76 | 1012.2 |
| 20260903161123 | 28 | 257 | 4.8 | 12.9 | 0.00 | 1.07 | 0.46 | 78 | 1012.8 |
| 20260903160121 | 27 | 229 | 4.8 | 12.9 | 0.00 | 1.07 | 0.46 | 81 | 1012.8 |
| 20260903155142 | 27 | 252 | 8.0 | 16.1 | 0.00 | 1.07 | 0.46 | 79 | 1012.9 |
| 20260903154121 | 27 | 291 | 4.8 | 8.0 | 0.00 | 1.07 | 0.46 | 82 | 1012.7 |
| 20260903153123 | 27 | 257 | 4.8 | 14.5 | 0.00 | 1.07 | 0.46 | 83 | 1012.8 |
| 20260903152122 | 27 | 264 | 6.4 | 9.7 | 0.00 | 1.07 | 0.46 | 84 | 1012.8 |
| 20260903151143 | 27 | 251 | 6.4 | 12.9 | 0.00 | 1.07 | 0.46 | 83 | 1012.9 |
| 20260903150123 | 27 | 283 | 4.8 | 11.3 | 0.00 | 1.07 | 0.46 | 86 | 1012.9 |
| 20260903145121 | 26 | 313 | 4.8 | 11.3 | 0.00 | 1.07 | 0.46 | 89 | 1012.8 |
| 20260903144122 | 26 | 219 | 4.8 | 9.7 | 0.00 | 1.07 | 0.46 | 90 | 1012.7 |
| 20260903143124 | 25 | 256 | 6.4 | 14.5 | 0.00 | 1.07 | 0.46 | 90 | 1012.9 |
| 20260903142123 | 25 | 261 | 6.4 | 12.9 | 0.00 | 1.07 | 0.46 | 91 | 1012.7 |
| 20260903141122 | 25 | 237 | 6.4 | 14.5 | 0.00 | 1.07 | 0.46 | 92 | 1013.1 |
| 20260903140121 | 25 | 259 | 6.4 | 14.5 | 0.00 | 1.07 | 0.46 | 95 | 1013.1 |
| 20260903135121 | 23 | 252 | 4.8 | 8.0 | 0.00 | 1.07 | 0.46 | 99 | 1013.2 |
| 20260903134121 | 23 | 260 | 6.4 | 14.5 | 0.00 | 1.07 | 0.46 | 99 | 1013.4 |
| 20260903133126 | 22 | 254 | 4.8 | 9.7 | 0.00 | 1.07 | 0.46 | 99 | 1013.2 |
| 20260903132122 | 22 | 229 | 3.2 | 6.4 | 0.00 | 1.07 | 0.46 | 99 | 1013.5 |
| 20260903131122 | 21 | 245 | 4.8 | 8.0 | 0.00 | 1.07 | 0.46 | 99 | 1013.5 |
| 20260903130121 | 21 | 243 | 3.2 | 6.4 | 0.00 | 1.07 | 0.46 | 99 | 1013.5 |
| 20260903125124 | 21 | 246 | 3.2 | 6.4 | 0.00 | 1.07 | 0.46 | 99 | 1013.6 |
| 20260903124121 | 21 | 189 | 1.6 | 4.8 | 0.00 | 1.07 | 0.46 | 99 | 1013.6 |
| 20260903123122 | 21 | 202 | 1.6 | 4.8 | 0.00 | 1.07 | 0.46 | 99 | 1013.5 |
| 20260903122125 | 21 | 201 | 1.6 | 4.8 | 0.00 | 1.07 | 0.46 | 99 | 1014.0 |
| 20260903121142 | 21 | 241 | 1.6 | 4.8 | 0.00 | 1.07 | 0.46 | 99 | 1013.9 |
| 20260903120123 | 21 | 263 | 0.0 | 3.2 | 0.00 | 1.07 | 0.46 | 99 | 1013.9 |
| 20260903115128 | 21 | 270 | 0.0 | 0.0 | 0.00 | 1.07 | 0.46 | 99 | 1013.7 |
| 20260903114122 | 21 | 180 | 0.0 | 0.0 | 0.00 | 1.07 | 0.46 | 99 | 1013.8 |
| 20260903113121 | 21 | 45 | 0.0 | 0.0 | 0.00 | 1.07 | 0.46 | 99 | 1013.5 |
| 20260903112124 | 21 | 338 | 0.0 | 0.0 | 0.00 | 1.07 | 0.46 | 99 | 1013.2 |
| 20260903111122 | 21 | 270 | 0.0 | 0.0 | 0.00 | 1.07 | 0.46 | 99 | 1013.6 |
| 20260903110121 | 21 | 248 | 0.0 | 0.0 | 0.00 | 1.07 | 0.46 | 99 | 1013.6 |
| 20260903105122 | 21 | 23 | 0.0 | 0.0 | 0.00 | 1.07 | 0.46 | 99 | 1013.8 |
| 20260903104143 | 21 | 339 | 1.6 | 8.0 | 0.00 | 1.07 | 0.46 | 99 | 1013.7 |
| 20260903103121 | 21 | 266 | 3.2 | 6.4 | 0.00 | 1.07 | 0.46 | 99 | 1013.5 |
| 20260903102123 | 21 | 248 | 4.8 | 6.4 | 0.00 | 1.07 | 0.46 | 99 | 1013.2 |
| 20260903101122 | 21 | 258 | 3.2 | 6.4 | 0.00 | 1.07 | 0.46 | 99 | 1013.1 |
| 20260903100143 | 21 | 295 | 3.2 | 6.4 | 0.00 | 1.07 | 0.46 | 99 | 1013.1 |
| 20260903095126 | 21 | 304 | 1.6 | 6.4 | 0.00 | 1.09 | 0.46 | 99 | 1013.5 |
| 20260903094121 | 21 | 233 | 3.2 | 6.4 | 0.00 | 1.09 | 0.46 | 99 | 1013.2 |
| 20260903093123 | 21 | 258 | 4.8 | 12.9 | 0.00 | 1.09 | 0.46 | 99 | 1013.1 |
| 20260903092121 | 21 | 262 | 4.8 | 8.0 | 0.00 | 1.09 | 0.46 | 99 | 1012.9 |
| 20260903091121 | 21 | 253 | 4.8 | 9.7 | 0.00 | 1.09 | 0.46 | 99 | 1012.9 |
| 20260903090142 | 21 | 256 | 3.2 | 8.0 | 0.03 | 1.09 | 0.46 | 99 | 1012.9 |
| 20260903085122 | 21 | 214 | 3.2 | 6.4 | 0.03 | 1.09 | 0.46 | 99 | 1013.1 |
| 20260903084123 | 21 | 240 | 1.6 | 6.4 | 0.03 | 1.09 | 0.46 | 99 | 1013.7 |
| 20260903083144 | 20 | 248 | 0.0 | 0.0 | 0.05 | 1.09 | 0.46 | 99 | 1014.0 |
| 20260903082121 | 20 | 315 | 0.0 | 0.0 | 0.05 | 1.09 | 0.46 | 99 | 1013.8 |
| 20260903081125 | 20 | 23 | 0.0 | 0.0 | 0.10 | 1.09 | 0.46 | 99 | 1013.6 |
| 20260903075122 | 20 | 23 | 0.0 | 0.0 | 0.13 | 1.07 | 0.43 | 99 | 1013.8 |
| 20260903074121 | 20 | 135 | 0.0 | 3.2 | 0.15 | 1.07 | 0.43 | 99 | 1014.1 |
| 20260903073121 | 20 | 242 | 1.6 | 3.2 | 0.13 | 1.04 | 0.41 | 99 | 1014.2 |
| 20260903072122 | 20 | 236 | 1.6 | 4.8 | 0.13 | 1.04 | 0.41 | 99 | 1014.4 |
| 20260903071123 | 20 | 227 | 1.6 | 3.2 | 0.08 | 0.99 | 0.36 | 99 | 1014.6 |
| 20260903070122 | 20 | 231 | 1.6 | 4.8 | 0.08 | 0.97 | 0.33 | 99 | 1014.6 |
| 20260903065127 | 20 | 248 | 0.0 | 0.0 | 0.05 | 0.94 | 0.30 | 99 | 1014.6 |
| 20260903064122 | 20 | 270 | 0.0 | 0.0 | 0.05 | 0.91 | 0.28 | 99 | 1014.5 |
| 20260903063122 | 20 | 338 | 0.0 | 0.0 | 0.05 | 0.91 | 0.28 | 99 | 1014.4 |
| 20260903062122 | 20 | 233 | 0.0 | 3.2 | 0.10 | 0.91 | 0.28 | 99 | 1014.6 |
| 20260903061123 | 20 | 269 | 0.0 | 3.2 | 0.23 | 0.91 | 0.28 | 99 | 1014.4 |
| 20260903060142 | 20 | 177 | 1.6 | 3.2 | 0.23 | 0.89 | 0.25 | 99 | 1014.4 |
| 20260903055121 | 20 | 210 | 3.2 | 4.8 | 0.23 | 0.89 | 0.25 | 99 | 1014.8 |
| 20260903054121 | 20 | 116 | 1.6 | 3.2 | 0.23 | 0.86 | 0.23 | 99 | 1015.2 |
| 20260903053121 | 20 | 305 | 1.6 | 6.4 | 0.23 | 0.86 | 0.23 | 99 | 1016.2 |
| 20260903052122 | 20 | 288 | 4.8 | 11.3 | 0.18 | 0.81 | 0.18 | 99 | 1016.8 |
| 20260903051121 | 20 | 303 | 4.8 | 8.0 | 0.05 | 0.69 | 0.05 | 99 | 1016.1 |
| 20260903050122 | 20 | 287 | 1.6 | 4.8 | 0.03 | 0.66 | 0.03 | 99 | 1016.1 |
| 20260903045121 | 20 | 35 | 1.6 | 4.8 | 0.03 | 0.66 | 0.03 | 99 | 1016.2 |
| 20260903044143 | 20 | 113 | 0.0 | 3.2 | 0.00 | 0.64 | 0.00 | 99 | 1016.5 |
| 20260903043122 | 20 | 293 | 0.0 | 0.0 | 0.00 | 0.64 | 0.00 | 99 | 1016.2 |
| 20260903042142 | 20 | 203 | 0.0 | 0.0 | 0.00 | 0.64 | 0.00 | 99 | 1016.2 |
| 20260903041125 | 20 | 338 | 0.0 | 0.0 | 0.00 | 0.64 | 0.00 | 99 | 1016.4 |
| 20260903040121 | 20 | 270 | 0.0 | 0.0 | 0.00 | 0.64 | 0.00 | 99 | 1016.4 |
| 20260903035127 | 20 | 315 | 0.0 | 0.0 | 0.00 | 0.64 | 0.64 | 99 | 1016.5 |
| 20260903034121 | 20 | 105 | 1.6 | 3.2 | 0.00 | 0.64 | 0.64 | 99 | 1016.4 |
| 20260903033121 | 20 | 97 | 1.6 | 4.8 | 0.00 | 0.64 | 0.64 | 99 | 1016.1 |
| 20260903032123 | 20 | 95 | 1.6 | 4.8 | 0.00 | 0.64 | 0.64 | 99 | 1016.2 |
| 20260903031123 | 20 | 101 | 3.2 | 4.8 | 0.00 | 0.64 | 0.64 | 99 | 1016.2 |
| 20260903030121 | 20 | 106 | 4.8 | 6.4 | 0.00 | 0.64 | 0.64 | 99 | 1016.2 |
| 20260903025124 | 20 | 98 | 1.6 | 6.4 | 0.00 | 0.64 | 0.64 | 99 | 1016.6 |
| 20260903024122 | 20 | 90 | 0.0 | 0.0 | 0.00 | 0.64 | 0.64 | 99 | 1016.8 |
| 20260903023143 | 20 | 225 | 0.0 | 0.0 | 0.00 | 0.64 | 0.64 | 99 | 1016.8 |
| 20260903022123 | 20 | 69 | 1.6 | 3.2 | 0.00 | 0.64 | 0.64 | 99 | 1016.5 |
| 20260903021144 | 20 | 81 | 0.0 | 3.2 | 0.00 | 0.64 | 0.64 | 99 | 1016.4 |
| 20260903020121 | 20 | 113 | 0.0 | 0.0 | 0.00 | 0.64 | 0.64 | 99 | 1016.4 |
| 20260903015123 | 20 | 338 | 0.0 | 0.0 | 0.00 | 0.64 | 0.64 | 99 | 1016.9 |
| 20260903014121 | 20 | 164 | 1.6 | 6.4 | 0.00 | 0.64 | 0.64 | 99 | 1016.8 |
| 20260903013145 | 20 | 123 | 4.8 | 9.7 | 0.00 | 0.64 | 0.64 | 99 | 1016.9 |
| 20260903012125 | 20 | 104 | 3.2 | 4.8 | 0.00 | 0.64 | 0.64 | 99 | 1017.2 |
| 20260903011121 | 20 | 92 | 3.2 | 8.0 | 0.00 | 0.64 | 0.64 | 99 | 1017.4 |
| 20260903010122 | 20 | 106 | 3.2 | 6.4 | 0.00 | 0.64 | 0.64 | 99 | 1017.4 |
| 20260903005142 | 20 | 107 | 3.2 | 4.8 | 0.00 | 0.64 | 0.64 | 99 | 1017.8 |
| 20260903004142 | 20 | 70 | 3.2 | 6.4 | 0.00 | 0.64 | 0.64 | 99 | 1017.8 |
| 20260903003121 | 20 | 78 | 1.6 | 3.2 | 0.00 | 0.64 | 0.64 | 99 | 1017.5 |
| 20260903002142 | 20 | 118 | 1.6 | 4.8 | 0.00 | 0.64 | 0.64 | 99 | 1017.1 |
| 20260903001124 | 20 | 79 | 1.6 | 4.8 | 0.00 | 0.64 | 0.64 | 99 | 1016.8 |
| 20260903000121 | 20 | 109 | 3.2 | 6.4 | 0.00 | 0.64 | 0.64 | 99 | 1016.8 |
| 20260902235121 | 20 | 101 | 4.8 | 8.0 | 0.00 | 0.64 | 0.64 | 99 | 1016.8 |
| 20260902234121 | 20 | 110 | 3.2 | 8.0 | 0.00 | 0.64 | 0.64 | 99 | 1016.8 |